Simultaneous Nadir Overpasses (SNOs) Predictions

Prediction of SNOs between AQUA and METOP-B Satellite Orbit:

Table of predicted SNOs for the next 14.0 days since TLE Epoch: 8/16/2019
Index Date (AQUA) Time (AQUA) Lat,Lon (AQUA) SZA (AQUA ) Date (METOP-B) Time (METOP-B) Lat,Lon (METOP-B) SZA (METOP-B ) Distance(km) Time Diff (sec)
1 08/18/2019 01:36:21 73.85, 150.08 60.66 08/18/2019 01:35:55 73.86, 150.16 60.67 2.59 26
2 08/18/2019 02:25:47 -73.89, -42.36 119.29 08/18/2019 02:26:36 -73.89, -42.45 119.30 2.78 49
3 08/20/2019 20:20:57 -73.24, 50.18 119.10 08/20/2019 20:19:50 -73.22, 47.75 119.02 77.99 67
4 08/20/2019 21:10:37 73.88,-143.53 61.60 08/20/2019 21:10:17 73.86,-143.44 61.58 3.39 20
5 08/20/2019 22:00:03 -73.92, 24.03 118.36 08/20/2019 22:00:58 -73.90, 23.97 118.38 2.84 55
6 08/23/2019 15:55:17 -73.53, 116.03 117.86 08/23/2019 15:54:06 -73.47, 114.73 117.85 41.54 71
7 08/23/2019 16:44:51 73.85, -77.04 62.50 08/23/2019 16:44:38 73.86, -77.04 62.52 1.23 13
8 08/23/2019 17:34:18 -73.94, 90.41 117.40 08/23/2019 17:35:18 -73.95, 90.50 117.40 2.99 60
9 08/26/2019 11:29:37 -73.76,-178.04 116.65 08/26/2019 11:28:24 -73.67,-178.41 116.71 15.04 73
10 08/26/2019 12:19:07 73.87, -10.65 63.49 08/26/2019 12:19:00 73.86, -10.64 63.47 2.05 7
11 08/26/2019 13:08:33 -73.91, 156.91 116.47 08/26/2019 13:09:41 -73.90, 156.79 116.48 3.84 68
12 08/29/2019 07:03:53 -73.78,-111.65 115.65 08/29/2019 07:02:44 -73.77,-111.77 115.64 3.86 69
13 08/29/2019 07:53:22 73.85, 55.84 64.44 08/29/2019 07:53:22 73.85, 55.75 64.45 2.74 0




NCC Satellite Simultaneous Nadir Overpasses (SNOs) Prediction Service
